www.pogodaiklimat.ru

Погода и климат >> Архив погоды >> Таиланд >> Чонбури


ПОГОДА в Чонбури

  • Прогноз погоды в Чонбури
  • Монитор погоды в Чонбури

АРХИВ ПОГОДЫ в Чонбури

Время (UTC), дата Ветер
(напр.,м/с)
 
Видим.   Явления Облачность Т
(С)
Тd
(С)
f
(%)
Тe
(С)
Тes
(С)
Комфортность P
(гПа)
Po
(гПа)
Тmin
(С)
Tmax
(С)
R
(мм)
R24
(мм)
S
(см)
00 13.06 штиль 0 6000 м дымка 4/3 600 м
[Cb cap Cs]
+29.0 +25.5 81 +43 +44 опасность
перегрева
1007.2 1006.9 +27.7
03 13.06 С 3 8000 м дымка 5/4 600 м
[Cu hum Cs]
+32.8 +25.3 65 +47 +55 опасность
перегрева
1008.0 1007.7
06 13.06 ЮЗ 5 10 км 5/4 600 м
[Cb cap Cs]
+34.5 +24.9 58 +48 +55 опасность
перегрева
1007.1 1006.8
09 13.06 ЮЗ 5 10 км 5/4 600 м
[Cu hum Cs]
+34.2 +25.2 60 +48 +51 опасность
перегрева
1004.8 1004.5
12 13.06 Ю 3 10 км 6/4 600 м
[Cu hum Cs]
+32.2 +25.8 69 +47 +47 опасность
перегрева
1005.6 1005.3 +35.5
15 13.06 ЮВ 2 10 км 5/4 600 м
[Sc Cs]
+30.6 +26.4 78 +47 +47 опасность
перегрева
1008.0 1007.7
18 13.06 штиль 0 10 км 4/3 600 м
[Cu hum Cs]
+30.3 +24.9 73 +43 +43 опасность
перегрева
1006.9 1006.7
21 13.06 штиль 0 10 км 5/3 600 м
[Cu hum Cs]
+29.5 +25.2 78 +43 +43 опасность
перегрева
1006.8 1006.5
00 14.06 ЮЗ 3 10 км 6/3 600 м
[Cu hum Cs]
+29.4 +25.7 81 +44 +45 опасность
перегрева
1007.4 1007.2 +28.4
03 14.06 Ю 4 12 км 3/3 600 м
[Cu hum Ac trans Ci fib]
+32.2 +24.8 65 +45 +53 опасность
перегрева
1008.6 1008.4
06 14.06 ЮЗ 5 12 км 3/1 600 м
[Cb cap Ac trans Ci fib]
+33.7 +25.7 63 +49 +58 опасность
перегрева
1006.8 1006.5
09 14.06 СЗ 5 12 км 3/1 600 м
[Cb cap Ci fib]
+34.0 +24.8 59 +47 +51 опасность
перегрева
1004.8 1004.5
12 14.06 штиль 0 10 км 4/0
[Ac trans Cs]
+32.0 +24.9 66 +45 +45 опасность
перегрева
1005.8 1005.5 +35.2
15 14.06 штиль 0 10 км 3/0
[Ci fib]
+30.5 +25.9 76 +45 +45 опасность
перегрева
1007.8 1007.6
18 14.06 штиль 0 10 км 3/0
[Ci fib]
+30.0 +25.8 78 +45 +45 опасность
перегрева
1007.4 1007.2
21 14.06 З 3 10 км 6/0
[Cs]
+29.5 +24.5 75 +42 +42 опасность
перегрева
1005.9 1005.6
00 15.06 З 4 12 км 3/3 600 м
[Cu hum Ci fib]
+30.0 +25.5 77 +44 +45 опасность
перегрева
1007.6 1007.3 +28.8
03 15.06 Ю 5 12 км 3/3 600 м
[Cu hum Ci fib]
+33.7 +25.1 61 +48 +53 опасность
перегрева
1008.3 1008.0
06 15.06 ЮЗ 4 12 км 3/3 600 м
[Cu hum Ci fib]
+34.0 +25.1 60 +48 +58 опасность
перегрева
1007.3 1007.0
09 15.06 штиль 0 12 км 3/0
[Ci fib]
+35.0 +25.2 57 +49 +59 опасность
перегрева
1004.6 1004.3
12 15.06 ЮВ 2 10 км 3/1 600 м
[Cu hum Ac trans Ci fib]
+32.5 +24.7 64 +46 +46 опасность
перегрева
1005.2 1004.9 +35.7
15 15.06 штиль 0 10 км 3/0
[Ci fib]
+30.5 +26.3 78 +46 +46 опасность
перегрева
1007.7 1007.4
18 15.06 штиль 0 6000 м дымка 10/4 600 м
[Sc Ac As Cs]
+31.0 +25.4 72 +45 +45 опасность
перегрева
1007.5 1007.2
21 15.06 штиль 0 4000 м дымка 10/4 600 м
[Sc Ac As Cs]
+30.0 +25.3 76 +44 +44 опасность
перегрева
1006.3 1006.0
00 16.06 штиль 0 6000 м дымка 10/4 600 м
[Sc Ac As Cs]
+29.8 +25.6 78 +44 +45 опасность
перегрева
1007.2 1006.9 +29.0
03 16.06 штиль 0 10 км 4/3 600 м
[Cu hum Cs]
+33.0 +24.8 62 +46 +60 опасность
перегрева
1007.8 1007.6
06 16.06 ЮЗ 5 10 км 3/1 600 м
[Cb cap Ci fib]
+34.0 +24.8 59 +47 +57 опасность
перегрева
1006.0 1005.8
09 16.06 Ю 3 10 км 8/5 600 м
[Cu hum Ac lent Cs]
+33.6 +24.7 60 +47 +49 опасность
перегрева
1004.3 1004.0
12 16.06 В 3 10 км в посл. час гроза 10/6 600 м
[Cb cap Ac As Cs]
+27.4 +26.3 94 +42 +42 опасность
перегрева
1006.3 1006.0 +35.2 11
15 16.06 штиль 0 10 км {дождь} 9/4 600 м
[Sc Ac As Cs]
+28.3 +26.6 91 +44 +44 опасность
перегрева
1007.8 1007.5 2
18 16.06 штиль 0 10 км {дождь} 5/3 600 м
[Cu hum Cs]
+28.0 +26.6 92 +43 +43 опасность
перегрева
1007.4 1007.2 13
21 16.06 штиль 0 10 км 6/4 600 м
[Sc Cs]
+28.0 +25.9 88 +42 +42 опасность
перегрева
1005.4 1005.1
00 17.06 штиль 0 10 км 10/6 600 м
[Sc Ac As Cs]
+28.6 +25.9 85 +43 +43 опасность
перегрева
1006.8 1006.5 +26.9
03 17.06 З 4 10 км слаб. дождь 10/3 600 м
[Sc Ac As Cs]
+30.5 +25.9 76 +45 +49 опасность
перегрева
1008.5 1008.2 0.0
06 17.06 З 3 10 км {дождь} 8/4
[Sc Ac As Cs]
+31.2 +24.5 68 +44 +51 опасность
перегрева
1007.0 1006.7 0.4
09 17.06 З 5 10 км 8/3 600 м
[Sc Ac As Cs]
+30.0 +24.6 73 +43 +44 опасность
перегрева
1006.0 1005.7
12 17.06 штиль 0 10 км 9/0
[Ac cuf Cs]
+29.3 +24.6 76 +42 +42 опасность
перегрева
1006.0 1005.7 +31.0
15 17.06 штиль 0 10 км 5/0
[Ac und Cs]
+28.5 +24.5 79 +40 +40 очень
душно
1008.0 1007.7
18 17.06 штиль 0 10 км 5/0
[Ac trans Cs]
+28.2 +24.3 79 +39 +39 очень
душно
1007.2 1006.9
21 17.06 штиль 0 10 км 8/0
[Cs]
+28.0 +24.4 81 +39 +39 очень
душно
1005.9 1005.6
00 18.06 В 3 10 км 8/0
[Ac und Cs]
+28.3 +25.3 84 +41 +42 опасность
перегрева
1006.5 1006.2 +26.8
03 18.06 СЗ 2 8000 м дымка 8/3 600 м
[Cb cap Ac trans Cs]
+32.7 +25.8 67 +48 +55 опасность
перегрева
1008.1 1007.8
06 18.06 З 5 12 км 5/3 600 м
[Cb cap Ac trans Ci fib]
+33.0 +24.5 61 +46 +52 опасность
перегрева
1007.3 1007.0
09 18.06 штиль 0 12 км 6/3 600 м
[Cb cap Ac trans Ci fib]
+32.1 +24.4 64 +45 +50 опасность
перегрева
1005.1 1004.8
12 18.06 штиль 0 10 км 5/3 600 м
[Cb cap Ac trans Ci fib]
+30.2 +25.7 77 +45 +45 опасность
перегрева
1005.9 1005.7 +34.2
15 18.06 штиль 0 10 км 3/1 600 м
[Cu hum Ac trans Ci fib]
+29.5 +25.5 79 +43 +43 опасность
перегрева
1007.9 1007.6
18 18.06 штиль 0 10 км 3/1 600 м
[Cu hum Ac trans Ci fib]
+29.0 +24.7 78 +41 +41 опасность
перегрева
1007.5 1007.2
21 18.06 штиль 0 10 км 10/4 600 м
[Sc Ac As Cs]
+28.0 +24.4 81 +39 +39 очень
душно
1006.6 1006.3
00 19.06 штиль 0 10 км 10/6 600 м
[Sc Ac As Cs]
+28.6 +25.2 82 +42 +42 опасность
перегрева
1007.2 1006.9 +27.8
03 19.06 Ю 5 10 км 10/6 600 м
[Sc Ac As Cs]
+31.4 +25.3 70 +45 +47 опасность
перегрева
1008.6 1008.3
06 19.06 ЮВ 10 10 км 9/5 600 м
[Cu hum Ac As Cs]
+33.7 +25.3 62 +48 +48 опасность
перегрева
1006.9 1006.7
09 19.06 Ю 7 10 км 9/5 600 м
[Cu hum Ac As Cs]
+32.8 +25.7 66 +48 +48 опасность
перегрева
1005.3 1005.0
12 19.06 штиль 0 10 км 5/4 600 м
[Cb cap Ac lent Cs]
+31.2 +25.7 73 +46 +46 опасность
перегрева
1005.9 1005.6 +34.8
15 19.06 ЮВ 4 10 км {дождь} 8/5 600 м
[Sc Cs]
+25.7 +22.9 85 +34 +34 очень
душно
1007.3 1007.0 0.3
18 19.06 штиль 0 10 км {дождь} 10/6 600 м
[Sc Ac As Cs]
+27.0 +23.0 79 +36 +36 очень
душно
1007.6 1007.3 0.3

 

Местоположение метеостанции Чонбури (Таиланд): широта 13.37 долгота 100.98 высота над уровнем моря 2 м.

В архиве по умолчанию представлена погода в Чонбури за последнюю неделю. Архивные данные за месяц целиком и за предыдущие месяцы, начиная с января 2011 года, Вы можете получить, выбрав интересующий диапазон дат из раскрывающегося списка и нажав кнопку "Ввод!".


*Определитесь, кто Вы:
робот инопланетянин человек

Внимание! Время в таблицах - всемирное. Для получения местного времени необходимо прибавить поправку, которая равна 7 ч.

Смотрите также архив погоды в соседних городах и на ближайших метеорологических станциях:

Погода на Ко Сичан (Таиланд) (30 км)
Погода в Самутрудкан Агромете (Таиланд) (30 км)
Погода в Бангкок Пилот (Таиланд) (41 км)
Погода в Аэропорту Суварнабхуми (Таиланд) (42 км)
Погода в Бангна Агромете (Таиланд) (51 км)
Погода в Паттайе (Таиланд) (52 км)
Погода в Чаченгсау (Таиланд) (53 км)
Погода в Бангкоке 2 (Таиланд) (58 км)
Погода в Бангкоке (Таиланд) (61 км)
Погода в Хуайпонг Агромете (Таиланд) (73 км)

Пояснения к столбцам:

Ветер - указаны скорость ветра в м/с - средняя за 10 мин, порывы в срок и между сроками (в фигурных скобках) и направление, откуда дует ветер: С - северный, СВ - северо-восточный, В - восточный, ЮВ - юго-восточный, Ю - южный, ЮЗ - юго-западный, З - западный, СЗ - северо-западный.
Видимость - горизонтальная дальность видимости в метрах или километрах. При видимости от 1 до 10 км при отсутствии осадков обычно наблюдается дымка, при ухудшении видимости до 1 км и менее - туман. В сухую погоду видимость может ухудшаться дымом, пылью или мглою.
Явления - указаны атмосферные явления, наблюдавшиеся в срок или в последний час перед сроком; фигурными скобками обозначены явления, наблюдавшиеся между сроками (за 1-3 часа до срока); квадратными скобками обозначены град или гололедные отложения с указанием их диаметра в мм.
Облачность - указаны через наклонную черту общая и нижняя облачность в баллах и высота нижней границы облаков в метрах; квадратными скобками обозначены формы облаков: Ci - перистые, Cs - перисто-слоистые, Cc - перисто-кучевые, Ac - высококучевые, As - высокослоистые, Sc - слоисто-кучевые, Ns - слоисто-дождевые, Cu - кучевые, Cb - кучево-дождевые. Подробнее классификацию облаков см. в Атласе облаков (PDF).
T - Температура воздуха - температура, измеренная на высоте 2 м над землей.
Td - Температура точки росы - температура, при понижении до которой содержащийся в воздухе водяной пар достигнет насыщения.
f - Относительная влажность воздуха - влажноcть воздуха, измеренная на высоте 2 м над землей.
Te - Эффективная температура - температура, которую ощущает одетый по сезону человек в тени. Характеристика душности погоды. При расчете учитывается влияние влажности воздуха и скорости ветра на теплоощущения человека.
Tes - Эффективная температура на солнце - температура, которую ощущает человек, с поправкой на солнечный нагрев. Характеристика знойности погоды. Зависит от высоты солнца над горизонтом, облачности и скорости ветра. Ночью, в пасмурную погоду, а также при ветре 12 м/с и более поправка равна нулю.
P - Атмосферное давление - приведенное к уровню моря атмосферное давление.
Po - Атмосферное давление - измеренное на уровне метеостанции атмосферное давление.
Tmin - Минимальная температура - минимум температуры воздуха на высоте 2 м над землей.
Tmax - Максимальная температура - максимум температуры воздуха на высоте 2 м над землей.
R - Количество осадков - Количество выпавших осадков за период времени, мм. При наведении курсора мыши на число - период времени, за который выпало указанное количество осадков.
R24 - Количество осадков - Количество выпавших осадков за 24 часа, мм.
S - Снежный покров - Высота снежного покрова, см. При наведении курсора мыши на число - состояние снежного покрова и степень покрытия местности в баллах.